Hourly Data Report for November 02, 2016

All times are specified in Local Standard Time (LST). Add 1 hour to adjust for Daylight Saving Time where and when it is observed.

KITCHENER/WATERLOO
ONTARIO

43°27'39.000" N
80°22'43.000" W
321.60 m
6144239
71368
YKF

Download Data

Hourly Data (November 2016)
Hourly Data Report for November 2, 2016
Temp Definition
°C
Dew Point Temp Definition
°C
Rel Hum Definition
%
Wind Dir Definition
10's deg

Wind Spd Definition
km/h
Visibility Definition
km
Stn Press Definition
kPa
Hmdx Definition


Wind Chill Definition


Weather Definition


TIME
00:00 Legend Double Dagger 16.8 13.0 78 25 13 16.1 97.96     LegendNANA
01:00 Legend Double Dagger 16.9 13.1 78 25 9 16.1 98.01     LegendNANA
02:00 Legend Double Dagger 16.2 13.2 82 28 8 16.1 98.06     LegendNANA
03:00 Legend Double Dagger 16.3 13.6 84 32 9 16.1 98.08     LegendNANA
04:00 Legend Double Dagger 15.6 13.5 87 24 5 14.5 98.10     LegendNANA
05:00 Legend Double Dagger 14.9 13.5 92 34 5 9.7 98.14     Fog
06:00 Legend Double Dagger 14.3 13.2 93 LegendMM 4 8.1 98.20     Fog
07:00 Legend Double Dagger 13.9 13.0 94   0 6.4 98.29     Fog
08:00 Legend Double Dagger 13.9 13.1 95 14 5 4.0 98.35     Rain,Fog
09:00 Legend Double Dagger 15.0 13.9 93 35 8 4.8 98.35     Fog
10:00 Legend Double Dagger 16.4 12.6 78 LegendMM 4 16.1 98.37     LegendNANA
11:00 Legend Double Dagger 16.9 10.8 67 3 5 16.1 98.38     LegendNANA
12:00 Legend Double Dagger 17.5 10.7 64 11 8 16.1 98.32     LegendNANA
13:00 Legend Double Dagger 17.5 11.2 66 12 8 16.1 98.25     LegendNANA
14:00 Legend Double Dagger 16.9 12.2 73 32 5 16.1 98.28     LegendNANA
15:00 Legend Double Dagger 15.0 12.9 87 36 9 16.1 98.25     Rain
16:00 Legend Double Dagger 14.5 13.1 91 14 9 8.1 98.19     Rain,Fog
17:00 Legend Double Dagger 14.4 12.7 89 31 9 16.1 98.29     Rain
18:00 Legend Double Dagger 13.3 12.5 95 5 8 4.8 98.24     Rain,Fog
19:00 Legend Double Dagger 12.2 11.6 96 10 8 8.1 98.20     Rain,Fog
20:00 Legend Double Dagger 12.1 11.6 97 2 4 4.0 98.20     Fog
21:00 Legend Double Dagger 11.9 11.4 97 1 5 2.4 98.15     Fog
22:00 Legend Double Dagger 12.1 11.6 97 3 4 4.8 98.13     Fog
23:00 Legend Double Dagger 11.6 11.1 97   0 4.0 98.04     Fog

Notes on Data Quality.

Legend

  • E = Estimated
  • M = Missing
  • NA = Not Available
  • ‡ = Partner data that is not subject to review by the National Climate Archives
Date modified: